Location: Unspecified
(0.0000°N, 0.0000°E)
Time: 18:54:29
(UTC+00:00)

deb OV3-4 - Pass Details

Date: 16 April 2026
Orbit: 581 x 4210 km, 40.6° (Epoch: 13 May)

Event Time Altitude Azimuth Distance (km) Brightness Sun altitude
Rises 05:30:44 0° 202° (SSW) 4,213 ? -7.2°
Reaches altitude 10° 05:33:26 10° 191° (SSW) 3,602 ? -6.5°
Maximum altitude 05:42:11 34° 128° (SE) 3,185 ? -4.4°
Drops below altitude 10° 05:57:34 10° 70° (ENE) 6,355 ? -0.6°
Sets 06:04:17 0° 63° (ENE) 7,871 ? 1.1°
